{"data":{"norad_id":63402,"epoch":"2026-05-25T02:14:18.299904Z","epoch_age_seconds":64120,"freshness":"FRESH","line1":"1 63402U 25065D   26145.09326736  .00016986  00000+0  62504-3 0  9996","line2":"2 63402  43.0043  35.7017 0001409 263.8828  96.1863 15.27597238 64524","mean_motion":15.27597238,"eccentricity":0.0001409,"inclination_deg":43.0043,"raan_deg":35.7017,"arg_perigee_deg":263.8828,"mean_anomaly_deg":96.1863,"bstar":0.00062504,"rev_number":6452,"period_min":94.26568497108,"perigee_km":482.0307459035,"apogee_km":483.9642135999,"semimajor_km":6861.1344797517,"source":"CELESTRAK","updated_at":"2026-05-25T13:38:19.968362Z"}}